, OR

(GMT )
Tillamook

Weather History for KTMK - May, 2013

Change the Weather History Date:

Friday, May 17, 2013

  Actual Average Record
Temperature  
Mean Temperature 55 °F -  
Max Temperature 60 °F - - ()
Min Temperature 50 °F - - ()
Degree Days  
Heating Degree Days 10    
Growing Degree Days 5 (Base 50)    
Moisture  
Dew Point 49 °F    
Average Humidity 82    
Maximum Humidity 100    
Minimum Humidity 63    
Precipitation  
Precipitation 0.01 in - - ()
Sea Level Pressure  
Sea Level Pressure 30.05 in    
Wind  
Wind Speed 3 mph (SW)    
Max Wind Speed 14 mph    
Max Gust Speed 21 mph    
Visibility 10 miles    
Events Rain    
Averages and records for this station are not official NWS values.
T = Trace of Precipitation, MM = Missing Value Source: NWS Daily Summary

Daily Weather History Graph

Daily Weather History Graph

Search for Another Location

Airport or City:

Trip Planner

Search our weather history database for the weather conditions in past years. The results will help you decide how hot, cold, wet, or windy it might be!

Date:

Astronomy

May. 17, 2013 Rise Set
Actual Time 6:42 AM MDT 9:41 PM MDT
Civil Twilight 6:07 AM MDT 10:16 PM MDT
Nautical Twilight 5:22 AM MDT 11:01 PM MDT
Astronomical Twilight 4:29 AM MDT 11:55 PM MDT
Moon 1:29 PM MDT 2:29 AM MDT
Length of Visible Light 16h 09m
Length of Day
14h 59m
Waxing Crescent, 46% of the Moon is Illuminated
May 17
Waxing Crescent
May 17
First Quarter
May 24
Full
May 31
Last Quarter
Jun 8
New

Hourly Weather History & Observations

Time (MDT) Temp. Dew Point Humidity Pressure Visibility Wind Dir Wind Speed Gust Speed Precip Events Conditions
12:15 AM 50.0 °F 48.2 °F 94% 30.01 in 7.0 mi NNE 3.5 mph - N/A   Light Drizzle
12:35 AM 50.0 °F 48.2 °F 94% 30.01 in 10.0 mi Calm Calm - N/A   Overcast
12:55 AM 50.0 °F 48.2 °F 94% 30.01 in 10.0 mi Calm Calm - N/A   Overcast
1:15 AM 50.0 °F 48.2 °F 94% 30.02 in 10.0 mi Calm Calm - N/A   Overcast
1:35 AM 50.0 °F 48.2 °F 94% 30.02 in 10.0 mi Calm Calm - N/A   Overcast
1:55 AM 50.0 °F 48.2 °F 94% 30.02 in 10.0 mi Calm Calm - N/A   Overcast
2:15 AM 50.0 °F 48.2 °F 94% 30.02 in 10.0 mi Calm Calm - N/A   Overcast
2:35 AM 50.0 °F 48.2 °F 94% 30.01 in 10.0 mi Calm Calm - N/A   Overcast
2:55 AM 50.0 °F 48.2 °F 94% 30.01 in 10.0 mi Calm Calm - N/A   Light Drizzle
3:15 AM 50.0 °F 50.0 °F 100% 30.00 in 10.0 mi Calm Calm - N/A   Overcast
3:35 AM 51.8 °F 50.0 °F 94% 30.00 in 10.0 mi Calm Calm - N/A   Overcast
3:55 AM 50.0 °F 50.0 °F 100% 30.00 in 10.0 mi Calm Calm - N/A   Overcast
4:15 AM 50.0 °F 50.0 °F 100% 30.00 in 10.0 mi Calm Calm - N/A   Overcast
4:35 AM 50.0 °F 50.0 °F 100% 30.01 in 10.0 mi Calm Calm - N/A   Overcast
4:55 AM 50.0 °F 50.0 °F 100% 30.01 in 10.0 mi Calm Calm - N/A   Overcast
5:15 AM 51.8 °F 50.0 °F 94% 30.02 in 10.0 mi Calm Calm - N/A   Overcast
5:35 AM 51.8 °F 50.0 °F 94% 30.01 in 10.0 mi ESE 3.5 mph - N/A   Overcast
6:15 AM 51.8 °F 50.0 °F 94% 30.02 in 10.0 mi Calm Calm - N/A   Overcast
6:35 AM 51.8 °F 50.0 °F 94% 30.01 in 10.0 mi ESE 4.6 mph - N/A   Overcast
6:55 AM 50.0 °F 50.0 °F 100% 30.02 in 10.0 mi Calm Calm - N/A   Overcast
7:15 AM 50.0 °F 50.0 °F 100% 30.02 in 10.0 mi ESE 3.5 mph - N/A   Mostly Cloudy
7:35 AM 50.0 °F 50.0 °F 100% 30.02 in 10.0 mi SE 3.5 mph - N/A   Mostly Cloudy
7:55 AM 51.8 °F 51.8 °F 100% 30.02 in 10.0 mi South 4.6 mph - N/A   Mostly Cloudy
8:15 AM 51.8 °F 51.8 °F 100% 30.02 in 10.0 mi Calm Calm - N/A   Overcast
8:35 AM 53.6 °F 50.0 °F 88% 30.02 in 10.0 mi Calm Calm - N/A   Light Drizzle
8:55 AM 53.6 °F 50.0 °F 88% 30.03 in 10.0 mi Calm Calm - N/A Rain Light Rain
9:15 AM 53.6 °F 50.0 °F 88% 30.03 in 10.0 mi Calm Calm - 0.01 in   Overcast
9:35 AM 55.4 °F 50.0 °F 82% 30.03 in 10.0 mi Calm Calm - 0.01 in   Overcast
9:55 AM 55.4 °F 50.0 °F 82% 30.03 in 10.0 mi Calm Calm - 0.01 in   Overcast
10:15 AM 55.4 °F 50.0 °F 82% 30.03 in 10.0 mi South 4.6 mph - N/A   Overcast
10:35 AM 57.2 °F 50.0 °F 77% 30.03 in 10.0 mi South 5.8 mph - N/A   Overcast
10:55 AM 57.2 °F 50.0 °F 77% 30.03 in 10.0 mi SSW 6.9 mph - N/A   Overcast
11:15 AM 57.2 °F 50.0 °F 77% 30.03 in 10.0 mi SSE 6.9 mph - N/A   Overcast
11:35 AM 57.2 °F 48.2 °F 72% 30.04 in 10.0 mi SW 10.4 mph - N/A   Overcast
11:55 AM 57.2 °F 50.0 °F 77% 30.04 in 10.0 mi SSW 10.4 mph - N/A   Overcast
12:15 PM 59.0 °F 48.2 °F 67% 30.04 in 10.0 mi SSW 12.7 mph 18.4 mph N/A   Overcast
12:35 PM 59.0 °F 50.0 °F 72% 30.05 in 10.0 mi SW 10.4 mph - N/A   Overcast
1:15 PM 59.0 °F 48.2 °F 67% 30.05 in 10.0 mi SSW 10.4 mph - N/A   Overcast
1:35 PM 59.0 °F 50.0 °F 72% 30.05 in 10.0 mi WSW 9.2 mph - N/A   Overcast
1:55 PM 60.8 °F 48.2 °F 63% 30.05 in 10.0 mi WSW 10.4 mph 17.3 mph N/A   Overcast
2:15 PM 60.8 °F 48.2 °F 63% 30.06 in 10.0 mi WSW 12.7 mph - N/A   Overcast
2:35 PM 59.0 °F 50.0 °F 72% 30.07 in 10.0 mi West 13.8 mph 20.7 mph N/A   Overcast
2:55 PM 57.2 °F 50.0 °F 77% 30.08 in 10.0 mi West 9.2 mph - N/A   Overcast
3:15 PM 59.0 °F 50.0 °F 72% 30.08 in 10.0 mi West 10.4 mph - N/A   Overcast
3:35 PM 59.0 °F 51.8 °F 77% 30.08 in 10.0 mi West 6.9 mph - N/A Rain Light Rain
3:55 PM 59.0 °F 50.0 °F 72% 30.08 in 10.0 mi West 9.2 mph - N/A   Overcast
4:15 PM 59.0 °F 48.2 °F 67% 30.08 in 10.0 mi WSW 9.2 mph - N/A   Overcast
4:35 PM 59.0 °F 48.2 °F 67% 30.08 in 10.0 mi West 10.4 mph - N/A   Overcast
4:55 PM 59.0 °F 50.0 °F 72% 30.08 in 10.0 mi SW 6.9 mph - N/A   Overcast
5:15 PM 57.2 °F 48.2 °F 72% 30.08 in 10.0 mi SW 8.1 mph 16.1 mph N/A   Overcast
5:35 PM 59.0 °F 50.0 °F 72% 30.08 in 10.0 mi West 10.4 mph - N/A   Overcast
5:55 PM 59.0 °F 48.2 °F 67% 30.08 in 10.0 mi SW 10.4 mph - N/A   Overcast
6:15 PM 59.0 °F 46.4 °F 63% 30.08 in 10.0 mi WSW 8.1 mph - N/A   Scattered Clouds
6:35 PM 59.0 °F 46.4 °F 63% 30.09 in 10.0 mi West 6.9 mph - N/A   Mostly Cloudy
6:55 PM 59.0 °F 46.4 °F 63% 30.09 in 10.0 mi WSW 9.2 mph - N/A   Overcast
7:15 PM 59.0 °F 46.4 °F 63% 30.09 in 10.0 mi SSW 8.1 mph - N/A   Overcast
7:35 PM 57.2 °F 46.4 °F 67% 30.09 in 10.0 mi SSW 6.9 mph - N/A   Mostly Cloudy
7:55 PM 57.2 °F 46.4 °F 67% 30.09 in 10.0 mi SSW 8.1 mph - N/A   Mostly Cloudy
8:15 PM 57.2 °F 46.4 °F 67% 30.09 in 10.0 mi SW 4.6 mph - N/A   Mostly Cloudy
8:35 PM 57.2 °F 48.2 °F 72% 30.09 in 10.0 mi SSW 4.6 mph - N/A   Overcast
8:55 PM 57.2 °F 48.2 °F 72% 30.09 in 10.0 mi SSE 3.5 mph - N/A   Overcast
9:15 PM 57.2 °F 48.2 °F 72% 30.09 in 10.0 mi South 4.6 mph - N/A   Overcast
9:35 PM 55.4 °F 48.2 °F 77% 30.09 in 10.0 mi South 3.5 mph - N/A   Scattered Clouds
9:55 PM 53.6 °F 48.2 °F 82% 30.10 in 10.0 mi Calm Calm - N/A   Clear
10:15 PM 53.6 °F 48.2 °F 82% 30.10 in 10.0 mi Calm Calm - N/A   Mostly Cloudy
10:35 PM 53.6 °F 50.0 °F 88% 30.11 in 10.0 mi Calm Calm - N/A   Overcast
10:55 PM 53.6 °F 50.0 °F 88% 30.12 in 10.0 mi Calm Calm - N/A   Overcast
11:15 PM 53.6 °F 48.2 °F 82% 30.12 in 10.0 mi Calm Calm - N/A   Overcast
11:35 PM 53.6 °F 48.2 °F 82% 30.11 in 10.0 mi Calm Calm - N/A   Overcast
11:55 PM 53.6 °F 50.0 °F 88% 30.11 in 10.0 mi Calm Calm - N/A   Overcast